Location: Berkeley
(37.8716°N, 122.2727°W)
Time: 10:03:18
(UTC-07:00)

Tiangong - Visible Passes

Search period start: 26 September 2021 00:00
Search period end: 06 October 2021 00:00
Orbit: 382 x 385 km, 41.5° (Epoch: 26 September)

Date Brightness Start Highest point End Pass type
(mag) Time Alt. Az. Time Alt. Az. Time Alt. Az.
26 Sep 4.4 04:41:00 10° ESE 04:41:00 10° ESE 04:41:03 10° ESE visible
26 Sep 1.1 06:13:13 14° WSW 06:15:49 74° SSE 06:18:59 10° ENE visible
27 Sep 2.1 05:16:21 40° SE 05:16:21 40° SE 05:18:59 10° E visible
28 Sep 1.1 05:51:37 35° W 05:52:47 71° NNW 05:55:56 10° ENE visible
29 Sep 3.5 04:54:37 23° ENE 04:54:37 23° ENE 04:56:00 10° ENE visible
29 Sep 1.8 06:26:49 10° WNW 06:29:48 42° N 06:32:50 10° ENE visible
30 Sep 1.5 05:29:47 51° N 05:29:47 51° N 05:32:51 10° ENE visible
01 Oct 4.7 04:32:44 11° ENE 04:32:44 11° ENE 04:32:54 10° ENE visible
01 Oct 2.0 06:04:56 19° WNW 06:06:49 40° N 06:09:49 10° ENE visible
02 Oct 3.0 05:07:52 29° NE 05:07:52 29° NE 05:09:46 10° ENE visible
03 Oct 1.9 05:43:01 35° NW 05:43:47 43° N 05:46:50 10° E visible
04 Oct 4.3 04:46:00 15° ENE 04:46:00 15° ENE 04:46:43 10° ENE visible
04 Oct 1.1 06:18:12 15° WNW 06:20:44 76° NNE 06:23:54 10° ESE visible
05 Oct 2.0 05:21:13 46° NE 05:21:13 46° NE 05:23:48 10° E visible
